DW8913 Weather Reports


time (UTC)temp
C
wind
direction
speed
KPH
gust
KPH
rain 1hr
cm
rain 24hr
cm
rain mn
cm
humidity
%
barometer
mb
20260505034612 13 156 3.2 11.3 0.00 0.00 0.00 83 1011.5
20260505033041 13 114 4.8 12.9 0.00 0.00 0.00 83 1011.5
20260505031516 13 207 3.2 8.0 0.00 0.00 0.00 83 1011.6
20260505030055 13 129 4.8 14.5 0.00 0.00 0.00 83 1011.7
20260505024524 13 108 3.2 14.5 0.00 0.00 0.00 84 1011.7
20260505023105 13 138 4.8 12.9 0.00 0.00 0.00 84 1011.8
20260505021533 13 76 4.8 16.1 0.00 0.00 0.00 85 1011.9
20260505020108 13 202 3.2 11.3 0.00 0.00 0.00 85 1011.8
20260505014537 13 81 1.6 9.7 0.00 0.00 0.00 84 1011.8
20260505013008 13 81 4.8 12.9 0.00 0.00 0.00 84 1011.8
20260505011551 13 96 4.8 12.9 0.00 0.00 0.00 82 1011.6
20260505010021 13 65 3.2 12.9 0.00 0.00 0.00 81 1011.6
20260505004600 14 155 4.8 14.5 0.00 0.00 0.00 79 1011.5
20260505003033 14 114 4.8 12.9 0.00 0.00 0.00 78 1011.5
20260505001510 14 67 4.8 14.5 0.00 0.00 0.00 77 1011.4
20260505000106 15 65 4.8 16.1 0.00 0.00 0.00 74 1011.2
20260504234523 15 84 4.8 19.3 0.00 0.00 0.00 71 1011.1
20260504233107 15 121 4.8 16.1 0.00 0.00 0.00 71 1011.0
20260504231533 16 113 6.4 17.7 0.00 0.00 0.00 71 1010.9
20260504230002 16 180 8.0 19.3 0.00 0.00 0.00 70 1011.0
20260504224538 16 130 6.4 16.1 0.00 0.00 0.00 67 1010.9
20260504223010 16 103 6.4 16.1 0.00 0.00 0.00 68 1010.9
20260504221551 16 91 4.8 12.9 0.00 0.00 0.00 70 1010.7
20260504220031 15 63 3.2 14.5 0.00 0.00 0.00 72 1010.8
20260504214616 15 89 1.6 9.7 0.00 0.00 0.00 75 1010.8
20260504213034 15 86 1.6 9.7 0.00 0.00 0.00 75 1010.9
20260504211505 16 75 3.2 9.7 0.00 0.00 0.00 74 1011.1
20260504210049 16 89 3.2 12.9 0.00 0.00 0.00 74 1011.2
20260504204523 15 186 4.8 17.7 0.00 0.00 0.00 76 1011.2
20260504203107 15 163 4.8 14.5 0.00 0.00 0.00 77 1011.4
20260504201529 15 158 4.8 14.5 0.00 0.00 0.00 75 1011.6
20260504200002 16 100 3.2 12.9 0.00 0.00 0.00 73 1011.8
20260504194547 16 181 1.6 12.9 0.00 0.00 0.00 73 1012.0
20260504193019 16 122 3.2 12.9 0.00 0.00 0.00 72 1012.2
20260504191604 16 80 3.2 11.3 0.00 0.00 0.00 71 1012.3
20260504190027 16 136 3.2 14.5 0.00 0.00 0.00 71 1012.4
20260504184638 17 33 3.2 11.3 0.00 0.00 0.00 71 1012.8
20260504183033 17 82 4.8 16.1 0.00 0.00 0.00 70 1012.7
20260504181507 17 217 3.2 9.7 0.00 0.00 0.00 70 1012.9
20260504180049 17 75 1.6 14.5 0.00 0.00 0.00 71 1012.9
20260504174515 17 166 3.2 11.3 0.00 0.00 0.00 68 1013.1
20260504173056 17 173 3.2 12.9 0.00 0.00 0.00 69 1013.1
20260504171522 17 186 3.2 16.1 0.00 0.00 0.00 69 1013.3
20260504110107 11 122 1.6 6.4 0.00 0.00 0.00 77 1015.7
20260504081515 10 98 0.0 8.0 0.00 0.00 0.00 71 1015.7
20260504044517 10 134 0.0 3.2 0.00 0.00 0.00 67 1015.2
20260504043106 10 150 0.0 3.2 0.00 0.00 0.00 66 1015.0
20260504041530 10 126 0.0 4.8 0.00 0.00 0.00 69 1015.1
20260504040106 10 92 0.0 1.6 0.00 0.00 0.00 67 1014.9